CDT,Max TemperatureF,Mean TemperatureF,Min TemperatureF,Max Dew PointF,MeanDew PointF,Min DewpointF,Max Humidity, Mean Humidity, Min Humidity, Max Sea Level PressureIn, Mean Sea Level PressureIn, Min Sea Level PressureIn, Max VisibilityMiles, Mean VisibilityMiles, Min VisibilityMiles, Max Wind SpeedMPH, Mean Wind SpeedMPH, Max Gust SpeedMPH,PrecipitationIn, CloudCover, Events, WindDirDegrees
2011-10-1,78,62,46,37,35,34,66,39,21,30.27,30.22,30.16,10,10,4,15,6,20,0.00,1,,133
2011-10-2,86,68,50,39,36,36,62,38,17,30.23,30.16,30.06,10,10,4,22,10,26,0.00,0,,156
2011-10-3,91,71,51,46,41,36,58,36,20,30.15,30.10,30.06,10,10,10,20,12,32,0.00,0,,175
2011-10-4,89,72,55,45,41,39,58,34,17,30.18,30.11,30.05,10,10,5,23,12,29,0.00,0,,173
2011-10-5,82,66,51,57,45,39,68,47,26,30.09,30.04,29.94,10,10,8,31,14,39,0.00,2,,180
2011-10-6,86,74,62,57,54,46,68,51,37,29.97,29.88,29.79,10,10,8,38,23,51,0.00,3,,170
2011-10-7,80,76,71,64,61,55,73,60,53,29.97,29.90,29.84,10,10,10,29,23,37,0.00,7,,169
2011-10-8,75,68,62,63,60,57,94,80,57,30.06,29.97,29.87,10,7,1,28,20,39,0.00,7,,154
2011-10-9,62,58,55,59,57,54,100,95,88,30.11,30.08,30.04,10,7,3,13,8,,0.00,8,,109
2011-10-10,62,54,46,55,52,45,100,89,77,30.12,30.06,29.97,10,10,8,13,5,17,0.00,2,,231
2011-10-11,73,62,51,63,57,52,100,83,61,29.97,29.85,29.75,10,9,2,20,11,26,0.00,3,,178
2011-10-12,77,65,53,57,50,37,100,65,32,29.96,29.84,29.77,10,10,7,25,9,33,0.00,2,,310
2011-10-13,75,60,46,46,39,34,76,48,22,30.05,29.98,29.90,10,10,5,13,9,16,0.00,0,,288
2011-10-14,73,60,48,48,44,39,87,57,31,30.01,29.95,29.91,10,10,9,15,7,20,0.00,2,,68
2011-10-15,80,63,46,50,41,37,81,50,29,30.14,30.06,29.94,10,9,4,15,7,17,0.00,3,,135
2011-10-16,75,66,57,52,48,41,77,53,34,30.01,29.95,29.90,10,10,10,18,12,23,0.00,0,,311
2011-10-17,66,58,50,41,38,30,66,52,32,30.00,29.89,29.78,10,10,10,25,13,36,0.00,3,,28
2011-10-18,62,52,42,41,33,23,87,52,22,30.17,30.14,30.10,10,10,10,28,17,39,0.00,2,,342
2011-10-19,62,50,37,32,29,27,75,49,27,30.20,30.12,30.07,10,10,3,22,10,29,0.00,1,,343
2011-10-20,66,50,33,36,31,28,81,54,28,30.11,30.06,30.00,10,10,9,13,5,17,0.00,1,,103
2011-10-21,75,57,39,39,36,32,87,52,24,30.17,30.11,30.06,10,10,9,12,4,,0.00,0,,186
2011-10-22,69,55,41,54,46,37,93,68,53,30.09,30.05,29.98,10,10,10,13,6,17,0.00,1,,40
2011-10-23,82,64,46,50,44,36,94,62,19,30.08,30.04,29.99,10,9,5,13,6,18,0.00,1,,275
2011-10-24,86,66,46,46,39,34,71,40,18,30.14,30.06,29.95,10,10,7,31,10,38,0.00,1,,213
2011-10-25,84,73,62,50,44,36,59,40,18,29.92,29.86,29.81,10,10,10,30,20,36,0.00,0,,248
2011-10-26,62,54,46,41,37,34,62,52,37,30.13,30.02,29.89,10,10,10,25,18,36,0.00,4,,21
2011-10-27,51,45,39,39,34,28,93,66,44,30.20,30.16,30.12,10,10,7,23,14,29,0.00,3,,358
2011-10-28,62,45,28,32,28,23,93,56,24,30.31,30.25,30.21,10,10,9,10,6,22,0.00,1,,299
2011-10-29,66,50,33,36,30,25,81,49,24,30.22,30.10,29.94,10,10,10,28,13,34,0.00,0,,221
2011-10-30,64,52,41,36,31,27,76,46,26,30.21,30.12,29.95,10,10,5,18,10,23,0.00,1,,348
2011-10-31,75,57,39,39,34,28,76,48,24,30.18,30.08,29.96,10,10,6,21,11,24,0.00,0,,216